Location: Betra
(48.4113°N, 8.6634°E)
Time: 03:41:06
(UTC+00:00)

SAR-Lupe-4 - Pass Details

Date: 04 August 2024
Orbit: 473 x 479 km, 98.1° (Epoch: 30 August)

Event Time Altitude Azimuth Distance (km) Brightness Sun altitude
Rises 02:27:05 0° 19° (NNE) 2,540 8.5 -13.7°
Reaches altitude 10° 02:29:13 10° 25° (NNE) 1,657 7.5 -13.5°
Maximum altitude 02:32:39 46° 100° (E) 655 4.4 -13.1°
Drops below altitude 10° 02:36:04 10° 175° (S) 1,646 5.9 -12.7°
Enters shadow 02:36:07 10° 175° (S) 1,667 5.9 -12.7°
